Regional Weather Roundup
Issued by NWS

Home | Current Version | Previous Version | Graphics & Text | Print | Product List | Glossary On
Versions: 1 2 3 4 5 6 7 8 9 10 11 12 13 14 15 16 17 18 19 20 21 22 23 24 25 26 27 28 29 30 31 32 33 34 35 36 37 38 39 40 41 42 43 44 45 46 47 48 49 50
000
ASUS45 KBOU 280807
RWRCO

WEATHER ROUNDUP FOR COLORADO
NATIONAL WEATHER SERVICE DENVER/BOULDER CO
200 AM MDT THU MAY 28 2015

NOTE: "FAIR" INDICATES FEW OR NO CLOUDS BELOW 12000 FEET WITH NO
SIGNIFICANT WEATHER AND/OR OBSTRUCTIONS TO VISIBILITY.

COZ001>005-013-030-031-280900-
...NORTHWEST COLORADO...

CITY           SKY/WX    TMP DP  RH WIND       PRES   REMARKS
CRAIG          CLOUDY    49  44  83 CALM      30.16F
HAYDEN         CLOUDY    48  39  71 SW5       30.17S
MEEKER         CLOUDY    48  44  86 CALM      30.18F
MOUNT WERNER   NOT AVBL
STEAMBOAT SPGS CLOUDY    47  41  80 NE6       30.17F
WALDEN         PTCLDY    37  36  93 SE8       30.21F
$$

COZ006>008-011-280900-
...WEST CENTRAL VALLEYS...

CITY           SKY/WX    TMP DP  RH WIND       PRES   REMARKS
GRAND JUNCTION PTCLDY    52  47  83 E7        30.11F
MONTROSE       LGT RAIN  51  45  79 E9        30.17F
EAGLE          CLOUDY    48  46  93 E9        30.22S
RIFLE          CLOUDY    50  47  89 S6        30.17F
DELTA          PTCLDY    53  47  78 CALM      30.14R
NUCLA          PTCLDY    54  41  62 NW5       30.18S
$$

COZ017>023-064>068-280900-
...SOUTHWEST COLORADO...

CITY           SKY/WX    TMP DP  RH WIND       PRES   REMARKS
DURANGO        PTCLDY    46  37  71 CALM      30.15S
CORTEZ         CLEAR     47  41  80 E6        30.12F
PAGOSA SPRINGS MOCLDY    47  32  56 NE5       30.21F
TELLURIDE      PTCLDY    42  34  74 SE9       30.32R
WOLF CREEK PAS NOT AVBL
$$

COZ009-010-012-014-032>034-037-058>063-280900-
...CENTRAL COLORADO...

CITY           SKY/WX    TMP DP  RH WIND       PRES   REMARKS
ASPEN          CLOUDY    43  38  82 S3        30.25R
BUENA VISTA    PTCLDY    42  37  80 CALM      30.24R
COPPER MTN     PTCLDY    37  28  70 S9        30.40F
BERTHOUD PASS  FAIR      30  23  74 W18G28    30.41S WCI  18
COTTONWOOD PAS PTCLDY    46  32  57 W3        30.31S
GUNNISON       PTCLDY    37  34  87 NE3       30.29R
KREMMLING      MOCLDY    45  37  76 S3        30.23R
LEADVILLE      PTCLDY    32  29  88 N5        30.29F WCI  27
MONARCH PASS   PTCLDY    36  28  75 W21       30.51F
SALIDA         PTCLDY    42  36  78 CALM      30.30F
SUNLIGHT       CLOUDY    36  36 100 SW5       30.37F FOG
WILKERSON PASS MOCLDY    37  27  65 SW8       30.38F
$$

COZ069>075-280900-
...SAN LUIS VALLEY/SANGRE DE CRISTO MOUNTAINS...

CITY           SKY/WX    TMP DP  RH WIND       PRES   REMARKS
ALAMOSA        MOCLDY    42  36  79 NW5       30.20F
LA VETA PASS   MOCLDY   N/A N/A N/A MISG      30.32F
SAGUACHE       MOCLDY    43  36  75 NW14      30.24F
$$

COZ035-036-038>040-280900-
...NORTHERN COLORADO FRONT RANGE...

CITY           SKY/WX    TMP DP  RH WIND       PRES   REMARKS
DENVER INTL AP PTCLDY    50  45  83 S8        30.06R
DMNS CITY PARK   N/A     53  46  78 SW2       30.05S
AURORA         PTCLDY    52  45  77 SW8       30.07F
FRONT RANGE AP PTCLDY    55  46  71 MISG      30.06S
ERIE MUNI ARPT CLEAR     52  49  90 W3        30.06S
BOULDER MUN AP CLEAR     55  43  62 CALM      30.06S
CENTENNIAL     MOCLDY    51  43  74 SW8       30.07F
BROOMFIELD     CLEAR     54  48  82 N10       30.07S
FORT COLLINS   PTCLDY    55  54  94 N9        30.06F
LONGMONT       PTCLDY    55  49  80 CALM      30.07S
$$

COZ041-046-047-076>085-087-088-280900-
...PIKES PEAK/PALMER DIVIDE AND SOUTHERN FOOTHILLS...

CITY           SKY/WX    TMP DP  RH WIND       PRES   REMARKS
COLO. SPRINGS  PTCLDY    57  36  45 NW6       30.11F
A. F. ACADEMY  PTCLDY    49  40  69 N7        30.12F
ELLICOTT       PTCLDY   N/A N/A N/A S8        30.10S
FALCON         PTCLDY    51  40  63 NW6       30.15S
FORT CARSON    PTCLDY    49  40  71 NW8       30.08F
LIMON          CLOUDY    52  52 100 S13       30.08F
MONUMENT HILL  PTCLDY    46  39  76 E7        30.14F
TRINIDAD       PTCLDY    51  44  77 NW7       30.09F
$$

COZ042>045-048>051-090-091-280900-
...NORTHEAST COLORADO...

CITY           SKY/WX    TMP DP  RH WIND       PRES   REMARKS
GREELEY ARPT   CLOUDY    57  55  94 NE8       30.05R
AKRON          PTCLDY    54  53  97 S15       30.02F
BURLINGTON     CLOUDY    56  54  93 S14       30.03F
WRAY           PTCLDY    58  56  94 S6        30.01F
STERLING       MOCLDY    59  54  82 S5        30.03F
HOLYOKE        PTCLDY    55  52  88 CALM      30.01F
FORT MORGAN    PTCLDY    55  52  89 E7        30.04F
$$

COZ086-089-092>099-280900-
...SOUTHEAST COLORADO...

CITY           SKY/WX    TMP DP  RH WIND       PRES   REMARKS
PUEBLO         PTCLDY    56  51  84 CALM      30.03F
LA JUNTA       CLEAR     62  51  67 S7        30.00F
LAMAR          PTCLDY    60  55  83 VRB5      29.99F
SPRINGFIELD      N/A     57  56  96 SE10      30.05S
$$


USA.gov is the U.S. government's official web portal to all federal, state and local government web resources and services.